Location: Blanot
(47.1713°N, 4.2340°E)
Time: 10:32:27
(UTC+00:00)

Cosmos 1459 Rocket - Pass Details

Date: 14 July 2020
Orbit: 938 x 999 km, 83.0° (Epoch: 05 August)

Event Time Altitude Azimuth Distance (km) Brightness Sun altitude
Exits shadow 00:52:48 29° 164° (SSE) 1,651 4.7 -19.7°
Maximum altitude 00:55:54 63° 94° (E) 1,054 4.2 -19.6°
Drops below altitude 10° 01:02:00 10° 14° (NNE) 2,706 7.6 -19.3°
Sets 01:04:32 0° 12° (NNE) 3,665 8.6 -19.1°
